Regional Weather Roundup
Issued by NWS

Home | Current Version | Previous Version | Text Only | Print | Product List | Glossary On
Versions: 1 2 3 4 5 6 7 8 9 10 11 12 13 14 15 16 17 18 19 20 21 22 23 24 25 26 27 28 29 30 31 32 33 34 35 36 37 38 39 40 41 42 43 44 45 46 47 48 49 50
000
ASUS43 KLMK 201802
RWRKY
KENTUCKY REGIONAL WEATHER ROUNDUP
NATIONAL WEATHER SERVICE LOUISVILLE KY
200 PM EDT SAT JUL 20 2019

NOTE "FAIR" INDICATES FEW OR NO CLOUDS BELOW 12,000 FEET
WITH NO SIGNIFICANT WEATHER AND/OR OBSTRUCTIONS TO VISIBILITY.

KYZ001>023-026-027-061>063-070>075-201900-
WESTERN AND SOUTH CENTRAL KENTUCKY

CITY           SKY/WX    TMP DP  RH WIND       PRES   REMARKS
PADUCAH        FAIR      90  74  59 S9        29.98R HX  99
HENDERSON      FAIR      89  78  70 S8        29.98F HX 103
OWENSBORO      FAIR      90  78  68 S12       29.99S HX 104
HOPKINSVILLE   FAIR      89  75  62 SW9       30.01S HX  99
BOWLING GREEN  FAIR      91  75  59 SW8       30.01F HX 101
GLASGOW        PTSUNNY   91  74  57 SW7       30.01F HX 100
$$

KYZ024-025-028>034-038-045-046-053-201900-
NORTH CENTRAL KENTUCKY

CITY           SKY/WX    TMP DP  RH WIND       PRES   REMARKS
LOUISVILLE/SDF FAIR      92  72  51 W8        29.99F HX  99
LOUISVILLE/LOU FAIR      92  71  50 SW9       29.99F HX  98
FORT KNOX      NOT AVBL
$$

KYZ035>037-039>044-047>052-055>060-089>105-201900-
NORTHEAST KENTUCKY

CITY           SKY/WX    TMP DP  RH WIND       PRES   REMARKS
LEXINGTON      FAIR      92  72  51 SW9       30.02F HX  99
COVINGTON      FAIR      91  72  53 S21       29.97F HX  98
FRANKFORT      FAIR      92  74  55 SW9       29.99F HX 101
$$

KYZ054-064>069-076>088-106>120-201900-
SOUTHEAST KENTUCKY

CITY           SKY/WX    TMP DP  RH WIND       PRES   REMARKS
JACKSON        PTSUNNY   88  73  61 CALM      30.05F HX  95
LONDON         FAIR      88  75  65 CALM      30.03F HX  97
SOMERSET       NOT AVBL
MIDDLESBORO    FAIR      91  73  55 CALM      30.04F HX  98
MONTICELLO     FAIR      89  77  67 W14       30.05F HX 101
$$





USA.gov is the U.S. government's official web portal to all federal, state and local government web resources and services.